Location: Kellogg
(38.0159°N, 90.0546°W)
Time: 08:53:13
(UTC+00:00)

S-56A Canister/Altair - Pass Details

Date: 17 September 2024
Orbit: 636 x 2487 km, 38.9° (Epoch: 09 October)

Event Time Altitude Azimuth Distance (km) Brightness Sun altitude
Rises 02:48:08 0° 277° (W) 3,533 11.8 -31.2°
Reaches altitude 10° 02:50:19 10° 278° (W) 2,761 11.1 -31.6°
Maximum altitude 02:57:05 88° 8° (N) 1,316 8.5 -32.7°
Enters shadow 02:57:38 80° 87° (E) 1,359 8.5 -32.8°
Drops below altitude 10° 03:07:38 10° 99° (E) 4,171 - -34.4°
Sets 03:11:39 0° 100° (E) 5,439 - -35.0°
